Starlink 1301

operational
NORAD ID: 45361 Int'l Des: 2020-019 Owner: SPXS Country: US Constellation: starlink
LEOCIRCULARSTARLINK_TYPE

Starlink 1301について

説明を読み込み中...

リアルタイム位置

3D地球を読み込み中...

次回通過

高度履歴

Altitude vs Time

uPlot chart will show altitude changes over time

軌道要素

1 45361U 20019B 25352.00002315 .00074010 00000-0 15286-2 0 9995
2 45361 53.0476 138.9923 0005688 184.9024 10.4189 15.45187265 5840
Epoch: Dec 18, 2025 • Age: 9 hours

現在のステータス

高度 432.6 km
速度 7.66 km/s
衛星直下点 41.08°N, 54.1°E
打ち上げ日 Mar 18, 2020
運用期間 5.7 years
タイプ internet

技術仕様

分類 Payload
質量 260.00 kg
乾燥質量 248.00 kg
総質量 260.00 kg
長さ 0.20 m
直径 2.80 m
スパン 9.00 m
形状 Box + pan
製造者 SPXS
バスタイプ Starlink
フェーズステータス In Orbit
所有者/国 SPXS/US

大規模コンステレーション

Loading constellations...